Year,Month,Day,Hour,Minute,Value (Times are PST for temperature in C)
2018,02,21,00,00,-4.10
2018,02,21,00,01,-4.10
2018,02,21,00,02,-4.10
2018,02,21,00,03,-4.10
2018,02,21,00,04,-4.10
2018,02,21,00,05,-4.10
2018,02,21,00,06,-4.10
2018,02,21,00,07,-4.00
2018,02,21,00,08,-4.00
2018,02,21,00,09,-4.00
2018,02,21,00,10,-4.00
2018,02,21,00,11,-4.00
2018,02,21,00,12,-4.00
2018,02,21,00,13,-4.10
2018,02,21,00,14,-4.10
2018,02,21,00,15,-4.10
2018,02,21,00,16,-4.10
2018,02,21,00,17,-4.10
2018,02,21,00,18,-4.10
2018,02,21,00,19,-4.10
2018,02,21,00,20,-4.10
2018,02,21,00,21,-4.20
2018,02,21,00,22,-4.20
2018,02,21,00,23,-4.20
2018,02,21,00,24,-4.20
2018,02,21,00,25,-4.20
2018,02,21,00,26,-4.20
2018,02,21,00,27,-4.20
2018,02,21,00,28,-4.20
2018,02,21,00,29,-4.20
2018,02,21,00,30,-4.20
2018,02,21,00,31,-4.20
2018,02,21,00,32,-4.20
2018,02,21,00,33,-4.20
2018,02,21,00,34,-4.20
2018,02,21,00,35,-4.20
2018,02,21,00,36,-4.20
2018,02,21,00,37,-4.10
2018,02,21,00,38,-4.10
2018,02,21,00,39,-4.10
2018,02,21,00,40,-4.00
2018,02,21,00,41,-4.00
2018,02,21,00,42,-4.00
2018,02,21,00,43,-4.00
2018,02,21,00,44,-4.00
2018,02,21,00,45,-3.90
2018,02,21,00,46,-3.90
2018,02,21,00,47,-3.90
2018,02,21,00,48,-3.90
2018,02,21,00,49,-3.90
2018,02,21,00,50,-3.80
2018,02,21,00,51,-3.80
2018,02,21,00,52,-3.70
2018,02,21,00,53,-3.50
2018,02,21,00,54,-3.40
2018,02,21,00,55,-3.30
2018,02,21,00,56,-3.20
2018,02,21,00,57,-3.10
2018,02,21,00,58,-3.00
2018,02,21,00,59,-2.90
2018,02,21,01,00,-2.80
2018,02,21,01,01,-2.70
2018,02,21,01,02,-2.70
2018,02,21,01,03,-2.60
2018,02,21,01,04,-2.60
2018,02,21,01,05,-2.60
2018,02,21,01,06,-2.50
2018,02,21,01,07,-2.50
2018,02,21,01,08,-2.40
2018,02,21,01,09,-2.40
2018,02,21,01,10,-2.40
2018,02,21,01,11,-2.40
2018,02,21,01,12,-2.30
2018,02,21,01,13,-2.40
2018,02,21,01,14,-2.40
2018,02,21,01,15,-2.40
2018,02,21,01,16,-2.40
2018,02,21,01,17,-2.40
2018,02,21,01,18,-2.50
2018,02,21,01,19,-2.50
2018,02,21,01,20,-2.50
2018,02,21,01,21,-2.60
2018,02,21,01,22,-2.60
2018,02,21,01,23,-2.60
2018,02,21,01,24,-2.60
2018,02,21,01,25,-2.60
2018,02,21,01,26,-2.60
2018,02,21,01,27,-2.70
2018,02,21,01,28,-2.70
2018,02,21,01,29,-2.70
2018,02,21,01,30,-2.70
2018,02,21,01,31,-2.80
2018,02,21,01,32,-2.80
2018,02,21,01,33,-2.90
2018,02,21,01,34,-3.00
2018,02,21,01,35,-3.00
2018,02,21,01,36,-3.10
2018,02,21,01,37,-3.20
2018,02,21,01,38,-3.20
2018,02,21,01,39,-3.20
2018,02,21,01,40,-3.30
2018,02,21,01,41,-3.30
2018,02,21,01,42,-3.30
2018,02,21,01,43,-3.40
2018,02,21,01,44,-3.40
2018,02,21,01,45,-3.40
2018,02,21,01,46,-3.50
2018,02,21,01,47,-3.50
2018,02,21,01,48,-3.60
2018,02,21,01,49,-3.60
2018,02,21,01,50,-3.60
2018,02,21,01,51,-3.70
2018,02,21,01,52,-3.70
2018,02,21,01,53,-3.70
2018,02,21,01,54,-3.70
2018,02,21,01,55,-3.80
2018,02,21,01,56,-3.80
2018,02,21,01,57,-3.80
2018,02,21,01,58,-3.90
2018,02,21,01,59,-3.90
2018,02,21,02,00,-3.90
2018,02,21,02,01,-3.90
2018,02,21,02,02,-4.00
2018,02,21,02,03,-4.00
2018,02,21,02,04,-4.00
2018,02,21,02,05,-4.00
2018,02,21,02,06,-4.00
2018,02,21,02,07,-4.10
2018,02,21,02,08,-4.10
2018,02,21,02,09,-4.10
2018,02,21,02,10,-4.10
2018,02,21,02,11,-4.10
2018,02,21,02,12,-4.10
2018,02,21,02,13,-4.10
2018,02,21,02,14,-4.10
2018,02,21,02,15,-4.10
2018,02,21,02,16,-4.10
2018,02,21,02,17,-4.10
2018,02,21,02,18,-4.20
2018,02,21,02,19,-4.20
2018,02,21,02,20,-4.20
2018,02,21,02,21,-4.20
2018,02,21,02,22,-4.20
2018,02,21,02,23,-4.20
2018,02,21,02,24,-4.30
2018,02,21,02,25,-4.30
2018,02,21,02,26,-4.30
2018,02,21,02,27,-4.30
2018,02,21,02,28,-4.30
2018,02,21,02,29,-4.30
2018,02,21,02,30,-4.30
2018,02,21,02,31,-4.30
2018,02,21,02,32,-4.30
2018,02,21,02,33,-4.30
2018,02,21,02,34,-4.40
2018,02,21,02,35,-4.40
2018,02,21,02,36,-4.40
2018,02,21,02,37,-4.40
2018,02,21,02,38,-4.40
2018,02,21,02,39,-4.40
2018,02,21,02,40,-4.40
2018,02,21,02,41,-4.50
2018,02,21,02,42,-4.50
2018,02,21,02,43,-4.50
2018,02,21,02,44,-4.50
2018,02,21,02,45,-4.50
2018,02,21,02,46,-4.50
2018,02,21,02,47,-4.50
2018,02,21,02,48,-4.50
2018,02,21,02,49,-4.50
2018,02,21,02,50,-4.50
2018,02,21,02,51,-4.50
2018,02,21,02,52,-4.60
2018,02,21,02,53,-4.60
2018,02,21,02,54,-4.60
2018,02,21,02,55,-4.60
2018,02,21,02,56,-4.60
2018,02,21,02,57,-4.60
2018,02,21,02,58,-4.60
2018,02,21,02,59,-4.60
2018,02,21,03,00,-4.60
2018,02,21,03,01,-4.60
2018,02,21,03,02,-4.60
2018,02,21,03,03,-4.60
2018,02,21,03,04,-4.60
2018,02,21,03,05,-4.60
2018,02,21,03,06,-4.60
2018,02,21,03,07,-4.60
2018,02,21,03,08,-4.60
2018,02,21,03,09,-4.60
2018,02,21,03,10,-4.60
2018,02,21,03,11,-4.60
2018,02,21,03,12,-4.60
2018,02,21,03,13,-4.60
2018,02,21,03,14,-4.50
2018,02,21,03,15,-4.50
2018,02,21,03,16,-4.50
2018,02,21,03,17,-4.40
2018,02,21,03,18,-4.30
2018,02,21,03,19,-4.30
2018,02,21,03,20,-4.20
2018,02,21,03,21,-4.10
2018,02,21,03,22,-4.00
2018,02,21,03,23,-3.90
2018,02,21,03,24,-3.90
2018,02,21,03,25,-3.80
2018,02,21,03,26,-3.70
2018,02,21,03,27,-3.50
2018,02,21,03,28,-3.40
2018,02,21,03,29,-3.30
2018,02,21,03,30,-3.20
2018,02,21,03,31,-3.20
2018,02,21,03,32,-3.10
2018,02,21,03,33,-3.00
2018,02,21,03,34,-3.00
2018,02,21,03,35,-2.90
2018,02,21,03,36,-2.90
2018,02,21,03,37,-2.90
2018,02,21,03,38,-2.90
2018,02,21,03,39,-2.90
2018,02,21,03,40,-2.90
2018,02,21,03,41,-2.90
2018,02,21,03,42,-2.90
2018,02,21,03,43,-3.00
2018,02,21,03,44,-3.00
2018,02,21,03,45,-3.10
2018,02,21,03,46,-3.10
2018,02,21,03,47,-3.20
2018,02,21,03,48,-3.20
2018,02,21,03,49,-3.20
2018,02,21,03,50,-3.30
2018,02,21,03,51,-3.40
2018,02,21,03,52,-3.40
2018,02,21,03,53,-3.50
2018,02,21,03,54,-3.50
2018,02,21,03,55,-3.60
2018,02,21,03,56,-3.70
2018,02,21,03,57,-3.70
2018,02,21,03,58,-3.70
2018,02,21,03,59,-3.80
2018,02,21,04,00,-3.80
2018,02,21,04,01,-3.80
2018,02,21,04,02,-3.80
2018,02,21,04,03,-3.80
2018,02,21,04,04,-3.80
2018,02,21,04,05,-3.80
2018,02,21,04,06,-3.90
2018,02,21,04,07,-3.90
2018,02,21,04,08,-3.90
2018,02,21,04,09,-3.90
2018,02,21,04,10,-3.90
2018,02,21,04,11,-4.00
2018,02,21,04,12,-4.00
2018,02,21,04,13,-4.00
2018,02,21,04,14,-4.00
2018,02,21,04,15,-4.00
2018,02,21,04,16,-4.10
2018,02,21,04,17,-4.10
2018,02,21,04,18,-4.10
2018,02,21,04,19,-4.10
2018,02,21,04,20,-4.10
2018,02,21,04,21,-4.10
2018,02,21,04,22,-4.10
2018,02,21,04,23,-4.10
2018,02,21,04,24,-4.10
2018,02,21,04,25,-4.10
2018,02,21,04,26,-4.10
2018,02,21,04,27,-4.10
2018,02,21,04,28,-4.10
2018,02,21,04,29,-4.10
2018,02,21,04,30,-4.10
2018,02,21,04,31,-4.10
2018,02,21,04,32,-4.10
2018,02,21,04,33,-4.10
2018,02,21,04,34,-4.10
2018,02,21,04,35,-4.10
2018,02,21,04,36,-4.10
2018,02,21,04,37,-4.10
2018,02,21,04,38,-4.10
2018,02,21,04,39,-4.10
2018,02,21,04,40,-4.10
2018,02,21,04,41,-4.10
2018,02,21,04,42,-4.10
2018,02,21,04,43,-4.10
2018,02,21,04,44,-4.10
2018,02,21,04,45,-4.10
2018,02,21,04,46,-4.10
2018,02,21,04,47,-4.10
2018,02,21,04,48,-4.10
2018,02,21,04,49,-4.10
2018,02,21,04,50,-4.10
2018,02,21,04,51,-4.10
2018,02,21,04,52,-4.10
2018,02,21,04,53,-4.20
2018,02,21,04,54,-4.10
2018,02,21,04,55,-4.10
2018,02,21,04,56,-4.10
2018,02,21,04,57,-4.10
2018,02,21,04,58,-4.10
2018,02,21,04,59,-4.10
2018,02,21,05,00,-4.10
2018,02,21,05,01,-4.10
2018,02,21,05,02,-4.10
2018,02,21,05,03,-4.10
2018,02,21,05,04,-4.00
2018,02,21,05,05,-4.00
2018,02,21,05,06,-4.00
2018,02,21,05,07,-4.00
2018,02,21,05,08,-4.00
2018,02,21,05,09,-4.00
2018,02,21,05,10,-4.00
2018,02,21,05,11,-3.90
2018,02,21,05,12,-3.90
2018,02,21,05,13,-3.90
2018,02,21,05,14,-3.90
2018,02,21,05,15,-3.90
2018,02,21,05,16,-3.80
2018,02,21,05,17,-3.80
2018,02,21,05,18,-3.80
2018,02,21,05,19,-3.80
2018,02,21,05,20,-3.70
2018,02,21,05,21,-3.70
2018,02,21,05,22,-3.70
2018,02,21,05,23,-3.70
2018,02,21,05,24,-3.60
2018,02,21,05,25,-3.60
2018,02,21,05,26,-3.60
2018,02,21,05,27,-3.60
2018,02,21,05,28,-3.60
2018,02,21,05,29,-3.60
2018,02,21,05,30,-3.60
2018,02,21,05,31,-3.60
2018,02,21,05,32,-3.60
2018,02,21,05,33,-3.50
2018,02,21,05,34,-3.50
2018,02,21,05,35,-3.50
2018,02,21,05,36,-3.50
2018,02,21,05,37,-3.50
2018,02,21,05,38,-3.50
2018,02,21,05,39,-3.40
2018,02,21,05,40,-3.40
2018,02,21,05,41,-3.40
2018,02,21,05,42,-3.40
2018,02,21,05,43,-3.30
2018,02,21,05,44,-3.30
2018,02,21,05,45,-3.30
2018,02,21,05,46,-3.30
2018,02,21,05,47,-3.30
2018,02,21,05,48,-3.30
2018,02,21,05,49,-3.30
2018,02,21,05,50,-3.30
2018,02,21,05,51,-3.30
2018,02,21,05,52,-3.30
2018,02,21,05,53,-3.30
2018,02,21,05,54,-3.30
2018,02,21,05,55,-3.30
2018,02,21,05,56,-3.30
2018,02,21,05,57,-3.30
2018,02,21,05,58,-3.20
2018,02,21,05,59,-3.20
2018,02,21,06,00,-3.20
2018,02,21,06,01,-3.10
2018,02,21,06,02,-3.00
2018,02,21,06,03,-3.00
2018,02,21,06,04,-2.90
2018,02,21,06,05,-2.80
2018,02,21,06,06,-2.70
2018,02,21,06,07,-2.60
2018,02,21,06,08,-2.50
2018,02,21,06,09,-2.50
2018,02,21,06,10,-2.40
2018,02,21,06,11,-2.30
2018,02,21,06,12,-2.30
2018,02,21,06,13,-2.20
2018,02,21,06,14,-2.20
2018,02,21,06,15,-2.20
2018,02,21,06,16,-2.20
2018,02,21,06,17,-2.10
2018,02,21,06,18,-2.10
2018,02,21,06,19,-2.10
2018,02,21,06,20,-2.10
2018,02,21,06,21,-2.10
2018,02,21,06,22,-2.10
2018,02,21,06,23,-2.10
2018,02,21,06,24,-2.20
2018,02,21,06,25,-2.20
2018,02,21,06,26,-2.20
2018,02,21,06,27,-2.20
2018,02,21,06,28,-2.20
2018,02,21,06,29,-2.20
2018,02,21,06,30,-2.30
2018,02,21,06,31,-2.30
2018,02,21,06,32,-2.30
2018,02,21,06,33,-2.30
2018,02,21,06,34,-2.40
2018,02,21,06,35,-2.40
2018,02,21,06,36,-2.50
2018,02,21,06,37,-2.50
2018,02,21,06,38,-2.60
2018,02,21,06,39,-2.60
2018,02,21,06,40,-2.70
2018,02,21,06,41,-2.70
2018,02,21,06,42,-2.80
2018,02,21,06,43,-2.80
2018,02,21,06,44,-2.80
2018,02,21,06,45,-2.90
2018,02,21,06,46,-2.90
2018,02,21,06,47,-3.00
2018,02,21,06,48,-3.00
2018,02,21,06,49,-3.10
2018,02,21,06,50,-3.10
2018,02,21,06,51,-3.10
2018,02,21,06,52,-3.20
2018,02,21,06,53,-3.20
2018,02,21,06,54,-3.20
2018,02,21,06,55,-3.20
2018,02,21,06,56,-3.20
2018,02,21,06,57,-3.20
2018,02,21,06,58,-3.20
2018,02,21,06,59,-3.20
2018,02,21,07,00,-3.30
2018,02,21,07,01,-3.30
2018,02,21,07,02,-3.30
2018,02,21,07,03,-3.30
2018,02,21,07,04,-3.30
2018,02,21,07,05,-3.30
2018,02,21,07,06,-3.30
2018,02,21,07,07,-3.30
2018,02,21,07,08,-3.30
2018,02,21,07,09,-3.30
2018,02,21,07,10,-3.30
2018,02,21,07,11,-3.30
2018,02,21,07,12,-3.30
2018,02,21,07,13,-3.30
2018,02,21,07,14,-3.30
2018,02,21,07,15,-3.30
2018,02,21,07,16,-3.30
2018,02,21,07,17,-3.30
2018,02,21,07,18,-3.30
2018,02,21,07,19,-3.30
2018,02,21,07,20,-3.30
2018,02,21,07,21,-3.30
2018,02,21,07,22,-3.30
2018,02,21,07,23,-3.30
2018,02,21,07,24,-3.30
2018,02,21,07,25,-3.30
2018,02,21,07,26,-3.30
2018,02,21,07,27,-3.30
2018,02,21,07,28,-3.30
2018,02,21,07,29,-3.30
2018,02,21,07,30,-3.20
2018,02,21,07,31,-3.20
2018,02,21,07,32,-3.20
2018,02,21,07,33,-3.20
2018,02,21,07,34,-3.20
2018,02,21,07,35,-3.20
2018,02,21,07,36,-3.20
2018,02,21,07,37,-3.20
2018,02,21,07,38,-3.20
2018,02,21,07,39,-3.20
2018,02,21,07,40,-3.20
2018,02,21,07,41,-3.20
2018,02,21,07,42,-3.20
2018,02,21,07,43,-3.20
2018,02,21,07,44,-3.20
2018,02,21,07,45,-3.20
2018,02,21,07,46,-3.20
2018,02,21,07,47,-3.20
2018,02,21,07,48,-3.10
2018,02,21,07,49,-3.10
2018,02,21,07,50,-3.10
2018,02,21,07,51,-3.10
2018,02,21,07,52,-3.00
2018,02,21,07,53,-3.00
2018,02,21,07,54,-2.90
2018,02,21,07,55,-2.90
2018,02,21,07,56,-2.90
2018,02,21,07,57,-2.80
2018,02,21,07,58,-2.80
2018,02,21,07,59,-2.80
2018,02,21,08,00,-2.70
2018,02,21,08,01,-2.70
2018,02,21,08,02,-2.70
2018,02,21,08,03,-2.70
2018,02,21,08,04,-2.70
2018,02,21,08,05,-2.70
2018,02,21,08,06,-2.70
2018,02,21,08,07,-2.70
2018,02,21,08,08,-2.70
2018,02,21,08,09,-2.70
2018,02,21,08,10,-2.70
2018,02,21,08,11,-2.70
2018,02,21,08,12,-2.70
2018,02,21,08,13,-2.70
2018,02,21,08,14,-2.70
2018,02,21,08,15,-2.60
2018,02,21,08,16,-2.60
2018,02,21,08,17,-2.60
2018,02,21,08,18,-2.60
2018,02,21,08,19,-2.60
2018,02,21,08,20,-2.60
2018,02,21,08,21,-2.50
2018,02,21,08,22,-2.50
2018,02,21,08,23,-2.50
2018,02,21,08,24,-2.40
2018,02,21,08,25,-2.40
2018,02,21,08,26,-2.40
2018,02,21,08,27,-2.40
2018,02,21,08,28,-2.40
2018,02,21,08,29,-2.30
2018,02,21,08,30,-2.30
2018,02,21,08,31,-2.30
2018,02,21,08,32,-2.30
2018,02,21,08,33,-2.30
2018,02,21,08,34,-2.30
2018,02,21,08,35,-2.20
2018,02,21,08,36,-2.20
2018,02,21,08,37,-2.20
2018,02,21,08,38,-2.20
2018,02,21,08,39,-2.20
2018,02,21,08,40,-2.20
2018,02,21,08,41,-2.10
2018,02,21,08,42,-2.10
2018,02,21,08,43,-2.10
2018,02,21,08,44,-2.00
2018,02,21,08,45,-2.00
2018,02,21,08,46,-2.00
2018,02,21,08,47,-1.90
2018,02,21,08,48,-1.90
2018,02,21,08,49,-1.90
2018,02,21,08,50,-1.90
2018,02,21,08,51,-1.80
2018,02,21,08,52,-1.80
2018,02,21,08,53,-1.80
2018,02,21,08,54,-1.80
2018,02,21,08,55,-1.70
2018,02,21,08,56,-1.70
2018,02,21,08,57,-1.70
2018,02,21,08,58,-1.60
2018,02,21,08,59,-1.60
2018,02,21,09,00,-1.60
2018,02,21,09,01,-1.50
2018,02,21,09,02,-1.50
2018,02,21,09,03,-1.40
2018,02,21,09,04,-1.40
2018,02,21,09,05,-1.40
2018,02,21,09,06,-1.30
2018,02,21,09,07,-1.30
2018,02,21,09,08,-1.30
2018,02,21,09,09,-1.20
2018,02,21,09,10,-1.20
2018,02,21,09,11,-1.20
2018,02,21,09,12,-1.20
2018,02,21,09,13,-1.10
2018,02,21,09,14,-1.10
2018,02,21,09,15,-1.10
2018,02,21,09,16,-1.10
2018,02,21,09,17,-1.10
2018,02,21,09,18,-1.00
2018,02,21,09,19,-1.00
2018,02,21,09,20,-1.00
2018,02,21,09,21,-1.00
2018,02,21,09,22,-1.00
2018,02,21,09,23,-0.90
2018,02,21,09,24,-0.90
2018,02,21,09,25,-0.90
2018,02,21,09,26,-0.80
2018,02,21,09,27,-0.80
2018,02,21,09,28,-0.80
2018,02,21,09,29,-0.70
2018,02,21,09,30,-0.70
2018,02,21,09,31,-0.60
2018,02,21,09,32,-0.60
2018,02,21,09,33,-0.50
2018,02,21,09,34,-0.50
2018,02,21,09,35,-0.50
2018,02,21,09,36,-0.40
2018,02,21,09,37,-0.40
2018,02,21,09,38,-0.30
2018,02,21,09,39,-0.30
2018,02,21,09,40,-0.30
2018,02,21,09,41,-0.30
2018,02,21,09,42,-0.20
2018,02,21,09,43,-0.20
2018,02,21,09,44,-0.20
2018,02,21,09,45,-0.10
2018,02,21,09,46,-0.10
2018,02,21,09,47,-0.10
2018,02,21,09,48,-0.10
2018,02,21,09,49,0.00
2018,02,21,09,50,0.00
2018,02,21,09,51,0.10
2018,02,21,09,52,0.10
2018,02,21,09,53,0.10
2018,02,21,09,54,0.20
2018,02,21,09,55,0.20
2018,02,21,09,56,0.20
2018,02,21,09,57,0.20
2018,02,21,09,58,0.20
2018,02,21,09,59,0.20
2018,02,21,10,00,0.20
2018,02,21,10,01,0.20
2018,02,21,10,02,0.20
2018,02,21,10,03,0.20
2018,02,21,10,04,0.20
2018,02,21,10,05,0.20
2018,02,21,10,06,0.30
2018,02,21,10,07,0.30
2018,02,21,10,08,0.30
2018,02,21,10,09,0.30
2018,02,21,10,10,0.30
2018,02,21,10,11,0.40
2018,02,21,10,12,0.40
2018,02,21,10,13,0.40
2018,02,21,10,14,0.50
2018,02,21,10,15,0.50
2018,02,21,10,16,0.60
2018,02,21,10,17,0.60
2018,02,21,10,18,0.60
2018,02,21,10,19,0.70
2018,02,21,10,20,0.70
2018,02,21,10,21,0.70
2018,02,21,10,22,0.70
2018,02,21,10,23,0.80
2018,02,21,10,24,0.80
2018,02,21,10,25,0.80
2018,02,21,10,26,0.80
2018,02,21,10,27,0.90
2018,02,21,10,28,0.80
2018,02,21,10,29,0.80
2018,02,21,10,30,0.80
2018,02,21,10,31,0.80
2018,02,21,10,32,0.80
2018,02,21,10,33,0.70
2018,02,21,10,34,0.70
2018,02,21,10,35,0.70
2018,02,21,10,36,0.70
2018,02,21,10,37,0.70
2018,02,21,10,38,0.70
2018,02,21,10,39,0.70
2018,02,21,10,40,0.70
2018,02,21,10,41,0.70
2018,02,21,10,42,0.70
2018,02,21,10,43,0.70
2018,02,21,10,44,0.70
2018,02,21,10,45,0.80
2018,02,21,10,46,0.80
2018,02,21,10,47,0.80
2018,02,21,10,48,0.80
2018,02,21,10,49,0.80
2018,02,21,10,50,0.80
2018,02,21,10,51,0.80
2018,02,21,10,52,0.80
2018,02,21,10,53,0.80
2018,02,21,10,54,0.80
2018,02,21,10,55,0.80
2018,02,21,10,56,0.70
2018,02,21,10,57,0.70
2018,02,21,10,58,0.70
2018,02,21,10,59,0.70
2018,02,21,11,00,0.70
2018,02,21,11,01,0.70
2018,02,21,11,02,0.70
2018,02,21,11,03,0.70
2018,02,21,11,04,0.70
2018,02,21,11,05,0.70
2018,02,21,11,06,0.70
2018,02,21,11,07,0.70
2018,02,21,11,08,0.70
2018,02,21,11,09,0.80
2018,02,21,11,10,0.80
2018,02,21,11,11,0.90
2018,02,21,11,12,1.00
2018,02,21,11,13,1.00
2018,02,21,11,14,1.10
2018,02,21,11,15,1.10
2018,02,21,11,16,1.10
2018,02,21,11,17,1.00
2018,02,21,11,18,1.00
2018,02,21,11,19,0.90
2018,02,21,11,20,0.90
2018,02,21,11,21,1.00
2018,02,21,11,22,1.00
2018,02,21,11,23,1.00
2018,02,21,11,24,1.10
2018,02,21,11,25,1.10
2018,02,21,11,26,1.00
2018,02,21,11,27,1.00
2018,02,21,11,28,1.00
2018,02,21,11,29,1.00
2018,02,21,11,30,0.90
2018,02,21,11,31,0.90
2018,02,21,11,32,0.90
2018,02,21,11,33,0.80
2018,02,21,11,34,0.80
2018,02,21,11,35,0.80
2018,02,21,11,36,0.80
2018,02,21,11,37,0.80
2018,02,21,11,38,0.80
2018,02,21,11,39,0.80
2018,02,21,11,40,0.80
2018,02,21,11,41,0.80
2018,02,21,11,42,0.80
2018,02,21,11,43,0.80
2018,02,21,11,44,0.80
2018,02,21,11,45,0.80
2018,02,21,11,46,0.70
2018,02,21,11,47,0.70
2018,02,21,11,48,0.70
2018,02,21,11,49,0.70
2018,02,21,11,50,0.70
2018,02,21,11,51,0.70
2018,02,21,11,52,0.60
2018,02,21,11,53,0.60
2018,02,21,11,54,0.60
2018,02,21,11,55,0.60
2018,02,21,11,56,0.50
2018,02,21,11,57,0.40
2018,02,21,11,58,0.40
2018,02,21,11,59,0.40
2018,02,21,12,00,0.40
2018,02,21,12,01,0.40
2018,02,21,12,02,0.40
2018,02,21,12,03,0.40
2018,02,21,12,04,0.40
2018,02,21,12,05,0.40
2018,02,21,12,06,0.40
2018,02,21,12,07,0.40
2018,02,21,12,08,0.40
2018,02,21,12,09,0.40
2018,02,21,12,10,0.30
2018,02,21,12,11,0.30
2018,02,21,12,12,0.30
2018,02,21,12,13,0.30
2018,02,21,12,14,0.20
2018,02,21,12,15,0.20
2018,02,21,12,16,0.20
2018,02,21,12,17,0.20
2018,02,21,12,18,0.20
2018,02,21,12,19,0.20
2018,02,21,12,20,0.20
2018,02,21,12,21,0.10
2018,02,21,12,22,0.10
2018,02,21,12,23,0.10
2018,02,21,12,24,0.10
2018,02,21,12,25,0.10
2018,02,21,12,26,0.10
2018,02,21,12,27,0.10
2018,02,21,12,28,0.10
2018,02,21,12,29,0.10
2018,02,21,12,30,0.00
2018,02,21,12,31,0.00
2018,02,21,12,32,0.00
2018,02,21,12,33,-0.10
2018,02,21,12,34,-0.10
2018,02,21,12,35,-0.10
2018,02,21,12,36,-0.10
2018,02,21,12,37,0.00
2018,02,21,12,38,0.00
2018,02,21,12,39,0.00
2018,02,21,12,40,0.00
2018,02,21,12,41,0.10
2018,02,21,12,42,0.10
2018,02,21,12,43,0.10
2018,02,21,12,44,0.10
2018,02,21,12,45,0.10
2018,02,21,12,46,0.10
2018,02,21,12,47,0.10
2018,02,21,12,48,0.10
2018,02,21,12,49,0.10
2018,02,21,12,50,0.10
2018,02,21,12,51,0.10
2018,02,21,12,52,0.10
2018,02,21,12,53,0.00
2018,02,21,12,54,0.00
2018,02,21,12,55,0.00
2018,02,21,12,56,0.00
2018,02,21,12,57,0.00
2018,02,21,12,58,0.00
2018,02,21,12,59,0.00
2018,02,21,13,00,-0.10
2018,02,21,13,01,-0.10
2018,02,21,13,02,-0.10
2018,02,21,13,03,-0.10
2018,02,21,13,04,-0.10
2018,02,21,13,05,-0.10
2018,02,21,13,06,-0.10
2018,02,21,13,07,-0.20
2018,02,21,13,08,-0.20
2018,02,21,13,09,-0.10
2018,02,21,13,10,-0.10
2018,02,21,13,11,-0.10
2018,02,21,13,12,-0.10
2018,02,21,13,13,-0.10
2018,02,21,13,14,0.00
2018,02,21,13,15,0.00
2018,02,21,13,16,0.00
2018,02,21,13,17,0.00
2018,02,21,13,18,0.00
2018,02,21,13,19,0.00
2018,02,21,13,20,0.00
2018,02,21,13,21,0.00
2018,02,21,13,22,0.00
2018,02,21,13,23,0.10
2018,02,21,13,24,0.00
2018,02,21,13,25,0.10
2018,02,21,13,26,0.00
2018,02,21,13,27,0.00
2018,02,21,13,28,0.00
2018,02,21,13,29,0.00
2018,02,21,13,30,0.00
2018,02,21,13,31,0.00
2018,02,21,13,32,0.00
2018,02,21,13,33,0.00
2018,02,21,13,34,0.00
2018,02,21,13,35,0.00
2018,02,21,13,36,0.00
2018,02,21,13,37,0.10
2018,02,21,13,38,0.10
2018,02,21,13,39,0.10
2018,02,21,13,40,0.10
2018,02,21,13,41,0.10
2018,02,21,13,42,0.10
2018,02,21,13,43,0.20
2018,02,21,13,44,0.20
2018,02,21,13,45,0.20
2018,02,21,13,46,0.20
2018,02,21,13,47,0.20
2018,02,21,13,48,0.30
2018,02,21,13,49,0.20
2018,02,21,13,50,0.20
2018,02,21,13,51,0.20
2018,02,21,13,52,0.20
2018,02,21,13,53,0.20
2018,02,21,13,54,0.20
2018,02,21,13,55,0.20
2018,02,21,13,56,0.20
2018,02,21,13,57,0.20
2018,02,21,13,58,0.20
2018,02,21,13,59,0.20
2018,02,21,14,00,0.20
2018,02,21,14,01,0.20
2018,02,21,14,02,0.10
2018,02,21,14,03,0.10
2018,02,21,14,04,0.10
2018,02,21,14,05,0.10
2018,02,21,14,06,0.10
2018,02,21,14,07,0.00
2018,02,21,14,08,0.00
2018,02,21,14,09,0.00
2018,02,21,14,10,0.00
2018,02,21,14,11,-0.10
2018,02,21,14,12,-0.10
2018,02,21,14,13,-0.10
2018,02,21,14,14,-0.10
2018,02,21,14,15,-0.10
2018,02,21,14,16,-0.10
2018,02,21,14,17,-0.10
2018,02,21,14,18,-0.10
2018,02,21,14,19,-0.10
2018,02,21,14,20,-0.10
2018,02,21,14,21,-0.10
2018,02,21,14,22,-0.10
2018,02,21,14,23,-0.10
2018,02,21,14,24,-0.10
2018,02,21,14,25,-0.10
2018,02,21,14,26,-0.10
2018,02,21,14,27,-0.10
2018,02,21,14,28,-0.10
2018,02,21,14,29,-0.10
2018,02,21,14,30,-0.10
2018,02,21,14,31,-0.10
2018,02,21,14,32,0.00
2018,02,21,14,33,0.00
2018,02,21,14,34,0.00
2018,02,21,14,35,0.00
2018,02,21,14,36,0.00
2018,02,21,14,37,0.00
2018,02,21,14,38,0.00
2018,02,21,14,39,0.10
2018,02,21,14,40,0.10
2018,02,21,14,41,0.10
2018,02,21,14,42,0.10
2018,02,21,14,43,0.10
2018,02,21,14,44,0.20
2018,02,21,14,45,0.20
2018,02,21,14,46,0.20
2018,02,21,14,47,0.20
2018,02,21,14,48,0.20
2018,02,21,14,49,0.10
2018,02,21,14,50,0.10
2018,02,21,14,51,0.10
2018,02,21,14,52,0.10
2018,02,21,14,53,0.10
2018,02,21,14,54,0.10
2018,02,21,14,55,0.10
2018,02,21,14,56,0.10
2018,02,21,14,57,0.10
2018,02,21,14,58,0.10
2018,02,21,14,59,0.10
2018,02,21,15,00,0.10
2018,02,21,15,01,0.10
2018,02,21,15,02,0.10
2018,02,21,15,03,0.10
2018,02,21,15,04,0.10
2018,02,21,15,05,0.10
2018,02,21,15,06,0.10
2018,02,21,15,07,0.10
2018,02,21,15,08,0.00
2018,02,21,15,09,0.00
2018,02,21,15,10,0.00
2018,02,21,15,11,0.10
2018,02,21,15,12,0.10
2018,02,21,15,13,0.10
2018,02,21,15,14,0.10
2018,02,21,15,15,0.10
2018,02,21,15,16,0.10
2018,02,21,15,17,0.10
2018,02,21,15,18,0.20
2018,02,21,15,19,0.20
2018,02,21,15,20,0.20
2018,02,21,15,21,0.20
2018,02,21,15,22,0.20
2018,02,21,15,23,0.30
2018,02,21,15,24,0.30
2018,02,21,15,25,0.30
2018,02,21,15,26,0.30
2018,02,21,15,27,0.30
2018,02,21,15,28,0.30
2018,02,21,15,29,0.30
2018,02,21,15,30,0.30
2018,02,21,15,31,0.30
2018,02,21,15,32,0.20
2018,02,21,15,33,0.20
2018,02,21,15,34,0.20
2018,02,21,15,35,0.20
2018,02,21,15,36,0.20
2018,02,21,15,37,0.20
2018,02,21,15,38,0.20
2018,02,21,15,39,0.20
2018,02,21,15,40,0.30
2018,02,21,15,41,0.30
2018,02,21,15,42,0.30
2018,02,21,15,43,0.20
2018,02,21,15,44,0.20
2018,02,21,15,45,0.20
2018,02,21,15,46,0.20
2018,02,21,15,47,0.20
2018,02,21,15,48,0.20
2018,02,21,15,49,0.20
2018,02,21,15,50,0.20
2018,02,21,15,51,0.30
2018,02,21,15,52,0.30
2018,02,21,15,53,0.30
2018,02,21,15,54,0.30
2018,02,21,15,55,0.30
2018,02,21,15,56,0.30
2018,02,21,15,57,0.20
2018,02,21,15,58,0.20
2018,02,21,15,59,0.20
2018,02,21,16,00,0.20
2018,02,21,16,01,0.20
2018,02,21,16,02,0.20
2018,02,21,16,03,0.20
2018,02,21,16,04,0.20
2018,02,21,16,05,0.20
2018,02,21,16,06,0.20
2018,02,21,16,07,0.20
2018,02,21,16,08,0.20
2018,02,21,16,09,0.20
2018,02,21,16,10,0.20
2018,02,21,16,11,0.20
2018,02,21,16,12,0.20
2018,02,21,16,13,0.20
2018,02,21,16,14,0.20
2018,02,21,16,15,0.20
2018,02,21,16,16,0.20
2018,02,21,16,17,0.20
2018,02,21,16,18,0.20
2018,02,21,16,19,0.20
2018,02,21,16,20,0.20
2018,02,21,16,21,0.20
2018,02,21,16,22,0.30
2018,02,21,16,23,0.30
2018,02,21,16,24,0.30
2018,02,21,16,25,0.30
2018,02,21,16,26,0.30
2018,02,21,16,27,0.30
2018,02,21,16,28,0.30
2018,02,21,16,29,0.30
2018,02,21,16,30,0.30
2018,02,21,16,31,0.30
2018,02,21,16,32,0.30
2018,02,21,16,33,0.30
2018,02,21,16,34,0.20
2018,02,21,16,35,0.20
2018,02,21,16,36,0.20
2018,02,21,16,37,0.20
2018,02,21,16,38,0.20
2018,02,21,16,39,0.20
2018,02,21,16,40,0.20
2018,02,21,16,41,0.10
2018,02,21,16,42,0.10
2018,02,21,16,43,0.10
2018,02,21,16,44,0.10
2018,02,21,16,45,0.10
2018,02,21,16,46,0.10
2018,02,21,16,47,0.10
2018,02,21,16,48,0.10
2018,02,21,16,49,0.10
2018,02,21,16,50,0.10
2018,02,21,16,51,0.10
2018,02,21,16,52,0.10
2018,02,21,16,53,0.10
2018,02,21,16,54,0.10
2018,02,21,16,55,0.10
2018,02,21,16,56,0.10
2018,02,21,16,57,0.10
2018,02,21,16,58,0.10
2018,02,21,16,59,0.10
2018,02,21,17,00,0.10
2018,02,21,17,01,0.10
2018,02,21,17,02,0.10
2018,02,21,17,03,0.10
2018,02,21,17,04,0.10
2018,02,21,17,05,0.10
2018,02,21,17,06,0.10
2018,02,21,17,07,0.10
2018,02,21,17,08,0.10
2018,02,21,17,09,0.10
2018,02,21,17,10,0.10
2018,02,21,17,11,0.10
2018,02,21,17,12,0.10
2018,02,21,17,13,0.10
2018,02,21,17,14,0.10
2018,02,21,17,15,0.10
2018,02,21,17,16,0.10
2018,02,21,17,17,0.10
2018,02,21,17,18,0.10
2018,02,21,17,19,0.10
2018,02,21,17,20,0.10
2018,02,21,17,21,0.10
2018,02,21,17,22,0.10
2018,02,21,17,23,0.10
2018,02,21,17,24,0.10
2018,02,21,17,25,0.10
2018,02,21,17,26,0.10
2018,02,21,17,27,0.10
2018,02,21,17,28,0.10
2018,02,21,17,29,0.00
2018,02,21,17,30,0.00
2018,02,21,17,31,0.00
2018,02,21,17,32,0.00
2018,02,21,17,33,0.00
2018,02,21,17,34,0.00
2018,02,21,17,35,0.00
2018,02,21,17,36,0.00
2018,02,21,17,37,0.00
2018,02,21,17,38,0.00